Погода в Ерси

Россия / Республика Дагестан     42°00′50″N   48°01′16″E
темп.,
°C
ветер,
м/с
пор.,
м/с
влажн.,
%
обл.,
%
осадки,
мм/ч
давл.,
гПа
погр.,
м
4 июля, пн
пн400:00+16юз335826 0.0 101423
03:00+15юз335935 0.0 101422
06:00+19ююз114720 0.0 1015116
09:00+23вюв423573 0.0 10152102
12:00+22в443670 0.0 10161491
15:00+24ююв3332100 0.0 10142218
18:00+22всв21403 0.0 1015444
21:00+16юз22590 0.0 101614
5 июля, вт
вт500:00+17юз33530 0.0 101524
03:00+17юз43460 0.0 101432
06:00+21юз33390 0.0 101585
09:00+26всв32250 0.0 10142572
12:00+28всв762233 0.0 10132676
15:00+27вюв432513 0.0 10132272
18:00+19ссз346144 0.0 1015315
21:00+16ю11710 0.0 101611
6 июля, ср
ср600:00+16юз22680 0.0 101611
03:00+16юз22580 0.0 101514
06:00+20юз11450 0.0 1015110
09:00+26всв32340 0.0 10151460
12:00+26всв643565 0.0 10151907
15:00+25всв543986 0.0 10151542
18:00+22в43430 0.0 1016783
21:00+15юз11682 0.0 101811
7 июля, чт
чт700:00+15юз11720 0.0 101711
03:00+14ю11770 0.0 101710
06:00+17юв23650 0.0 1017313
09:00+22вюв44490 0.0 10161064
12:00+25в664212 0.0 10141512
15:00+24в55423 0.0 10141220
18:00+21вюв45522 0.0 1014735
21:00+15ю22770 0.1 101515
8 июля, пт
пт800:00+15ю22750 0.0 101411
03:00+15ю22773 0.0 101413
06:00+19ююв235813 0.0 1014213
09:00+25юв562995 0.0 10131103
12:00+28вюв552615 0.0 10121599
15:00+25вюв2338100 0.1 10121168
18:00+20юв2358100 0.3 1013109
21:00+18ююз226311 0.4 101313